[[{"header":{"parameterUnit":"m.s-1","parameterCategory":1,"la1":30.2991,"la2":30.254,"lo1":-89.0895,"lo2":-89.0444,"dy":0.0017,"dx":0.0017,"nx":28,"ny":28,"refTime":"2025-01-21T03:00:00:Z","depth":0,"parameterNumber":2,"parameterNumberName":"U-component_of_WINDS"},"data":[0,0,0,0,0,0,0,0,0,0,0,0,0,0,0,0,0,0,0,0,0,0,0,0,0,0,0,0,0,0,0,0,0,0,0,0,0,0,0,0,0,0,0,0,0,0,0,0,0,0,0,0,0,0,0,0,0,0,-0.7579,-0.758,0,-0.7679,-0.768,-0.7681,-0.7711,-0.7711,-0.771,-0.771,-0.7813,-0.7816,-0.7819,0,0,0,0,0,0,0,0,0,0,0,0,0,-0.7414,-0.7417,-0.7579,-0.758,-0.7582,-0.7679,-0.768,-0.7682,-0.7711,-0.7711,-0.771,-0.7709,-0.7812,-0.7815,-0.7819,0,0,0,0,0,0,0,0,0,0,0,0,0,-0.7497,-0.7418,-0.7579,-0.7608,-0.7612,-0.7679,-0.768,-0.7682,-0.7711,-0.7711,-0.771,-0.7709,-0.781,-0.7815,-0.782,-0.7865,0,0,-0.7834,-0.7837,0,0,0,0,0,0,0,0,-0.7493,-0.7503,-0.7603,-0.7606,-0.761,-0.7682,-0.766,-0.7743,-0.7712,-0.7674,-0.771,-0.7709,-0.777,-0.7778,-0.7798,-0.787,-0.7874,-0.7835,-0.7838,-0.784,-0.7841,0,0,0,0,0,0,0,-0.7487,-0.7499,-0.7619,-0.7604,-0.7609,-0.7616,-0.7627,-0.7676,-0.7725,-0.7677,-0.7679,-0.7691,-0.7772,-0.7794,-0.7801,-0.7876,-0.7835,-0.7839,-0.7842,-0.7844,-0.799,-0.7991,0,0,0,0,0,0,-0.7476,-0.7494,-0.7616,-0.7622,-0.7548,-0.762,-0.7632,-0.766,-0.7724,-0.7733,-0.7691,-0.7692,-0.7786,-0.7795,-0.7805,-0.7862,-0.784,-0.7844,-0.7847,-0.7989,-0.799,-0.7991,0,0,0,0,0,0,-0.7472,-0.7487,-0.7612,-0.7559,-0.7575,-0.7624,-0.7654,-0.7662,-0.7684,-0.7735,-0.7744,-0.7705,-0.7786,-0.7798,-0.785,-0.7866,-0.7847,-0.7851,-0.7988,-0.7989,-0.7991,-0.7977,0,0,0,0,0,0,-0.7467,-0.7485,-0.7503,-0.7559,-0.7578,-0.7655,-0.7655,-0.7665,-0.7692,-0.7694,-0.775,-0.7759,-0.7786,-0.7843,-0.7855,-0.7872,-0.7855,-0.7987,-0.7989,-0.799,-0.7976,-0.7978,-0.7979,0,0,0,0,0,-0.7461,-0.7495,-0.7503,-0.7518,-0.7601,-0.7656,-0.7666,-0.7697,-0.7693,-0.7712,-0.7745,-0.7757,-0.7862,-0.7848,-0.7862,-0.7881,-0.7986,-0.7988,-0.799,-0.7976,-0.7978,-0.7979,0,0,0,0,0,0,-0.7439,-0.7503,-0.7513,-0.7565,-0.7605,-0.766,-0.7684,-0.7698,-0.774,-0.7739,-0.7776,-0.7788,-0.7837,-0.7865,-0.7847,-0.7928,-0.7925,-0.793,-0.7909,-0.7911,-0.7912,-0.7905,-0.7859,0,0,0,0,0,-0.744,-0.7479,-0.7533,-0.7574,-0.7593,-0.7635,-0.766,-0.768,-0.7723,-0.774,-0.7777,-0.7817,-0.786,-0.7887,-0.7929,-0.7981,-0.7993,-0.8001,-0.8002,-0.8003,-0.8007,-0.8037,-0.8041,-0.7998,-0.7998,-0.7998,0,0,-0.7443,-0.7483,-0.7505,-0.7571,-0.7604,-0.7643,-0.7649,-0.7691,-0.7721,-0.7746,-0.7797,-0.7826,-0.7874,-0.7926,-0.7951,-0.795,-0.8022,-0.8006,-0.8006,-0.801,-0.8039,-0.8043,-0.8047,-0.8,-0.8,-0.7999,0,0,-0.7469,-0.7502,-0.754,-0.7573,-0.7623,-0.7651,-0.766,-0.7714,-0.7734,-0.7786,-0.7806,-0.7842,-0.7914,-0.7948,-0.7974,-0.8013,-0.8026,-0.8025,-0.8033,-0.8061,-0.8065,-0.8068,-0.8081,-0.8086,-0.8029,-0.8029,-0.8029,0,-0.7466,-0.7526,-0.7558,-0.7599,-0.7627,-0.7652,-0.7691,-0.7722,-0.7783,-0.7802,-0.78,-0.7891,-0.7926,-0.7986,-0.7995,-0.8016,-0.8027,-0.8019,-0.8061,-0.8065,-0.8068,-0.8082,-0.8087,-0.8029,-0.8029,-0.8029,-0.8029,0,-0.752,-0.7562,-0.7587,-0.7645,-0.7676,-0.7716,-0.7754,-0.7782,-0.7799,-0.7827,-0.788,-0.7922,-0.7973,-0.7989,-0.8006,-0.8051,-0.8049,-0.8054,-0.8051,-0.8071,-0.8084,-0.809,-0.8028,-0.8028,-0.8028,-0.8029,0,0,-0.7534,-0.761,-0.7618,-0.7645,-0.7702,-0.7735,-0.7776,-0.7825,-0.7848,-0.789,-0.7925,-0.7986,-0.7991,-0.8021,-0.8043,-0.8067,-0.8095,-0.8069,-0.8071,-0.8072,-0.8147,-0.8143,-0.8148,-0.8104,-0.8105,-0.8106,-0.8143,0,-0.7567,-0.764,-0.767,-0.773,-0.7769,-0.7793,-0.7829,-0.7868,-0.7895,-0.7933,-0.7963,-0.8006,-0.8009,-0.8027,-0.8053,-0.8086,-0.811,-0.8084,-0.8137,-0.8139,-0.8124,-0.8155,-0.8151,-0.8184,-0.8149,-0.815,-0.815,0,-0.7614,-0.7656,-0.7719,-0.7772,-0.7789,-0.7821,-0.7868,-0.7904,-0.7949,-0.7967,-0.8,-0.8021,-0.8065,-0.8059,-0.812,-0.8102,-0.8126,-0.8145,-0.8147,-0.8153,-0.8145,-0.8162,-0.8195,-0.82,-0.8159,-0.8158,-0.8157,0,-0.7618,-0.7689,-0.7737,-0.7759,-0.7821,-0.7843,-0.787,-0.7914,-0.7942,-0.7984,-0.8002,-0.8049,-0.8075,-0.811,-0.8143,-0.8136,-0.8201,-0.8198,-0.8218,-0.8217,-0.823,-0.8229,-0.8267,-0.8246,-0.8246,-0.8246,-0.8245,0,-0.765,-0.7688,-0.7739,-0.7768,-0.7811,-0.7846,-0.7888,-0.7916,-0.7956,-0.7991,-0.8015,-0.8048,-0.8089,-0.8127,-0.8153,-0.8199,-0.8211,-0.8227,-0.8233,-0.8225,-0.8222,-0.824,-0.8239,-0.8247,-0.8247,-0.8246,-0.8246,0,-0.7661,-0.7697,-0.775,-0.7805,-0.7819,-0.7849,-0.7896,-0.7925,-0.7953,-0.7998,-0.801,-0.8055,-0.8101,-0.8137,-0.8197,-0.8215,-0.8264,-0.8271,-0.8249,-0.8252,-0.8269,-0.8267,-0.832,-0.8329,-0.8302,-0.8302,-0.8302,0,-0.768,-0.7709,-0.7767,-0.7792,-0.7819,-0.7859,-0.7888,-0.7923,-0.7952,-0.8006,-0.8028,-0.8076,-0.8116,-0.8188,-0.8227,-0.8273,-0.8281,-0.8297,-0.8288,-0.8278,-0.8281,-0.8278,-0.8282,-0.8297,-0.8297,-0.8297,-0.8298,0,-0.7709,-0.7725,-0.7765,-0.7811,-0.7845,-0.7883,-0.7922,-0.7941,-0.7984,-0.8015,-0.8062,-0.8093,-0.8154,-0.8201,-0.8251,-0.8279,-0.8296,-0.83,-0.8307,-0.8298,-0.8284,-0.8291,-0.8251,-0.8299,-0.8298,-0.8298,-0.8298,-0.8298,-0.7724,-0.7751,-0.7796,-0.784,-0.7873,-0.7909,-0.7939,-0.7971,-0.8011,-0.8063,-0.8082,-0.813,-0.8175,-0.8244,-0.8272,-0.8311,-0.8312,-0.8322,-0.8325,-0.8326,-0.8325,-0.8278,-0.832,-0.832,-0.832,-0.8321,-0.8321,0,-0.7754,-0.7784,-0.7824,-0.7877,-0.7912,-0.7924,-0.7968,-0.7996,-0.8038,-0.8078,-0.8117,-0.8171,-0.8217,-0.8259,-0.8307,-0.833,-0.8338,-0.8341,-0.8339,-0.8346,-0.8322,-0.8311,-0.8333,-0.8333,-0.8333,-0.8333,-0.8333,-0.8333,-0.7773,-0.782,-0.7842,-0.7906,-0.7936,-0.7983,-0.8007,-0.804,-0.8072,-0.8132,-0.817,-0.8196,-0.8237,-0.8288,-0.8331,-0.8342,-0.8359,-0.8359,-0.8372,-0.8349,-0.8347,-0.8346,-0.8336,-0.8363,-0.8363,-0.8393,-0.8393,-0.8393]},{"header":{"parameterUnit":"m.s-1","parameterCategory":1,"la1":30.2991,"la2":30.254,"lo1":-89.0895,"lo2":-89.0444,"dy":0.0017,"dx":0.0017,"nx":28,"ny":28,"refTime":"2025-01-21T03:00:00:Z","depth":0,"parameterNumber":3,"parameterNumberName":"V-component_of_WINDS"},"data":[0,0,0,0,0,0,0,0,0,0,0,0,0,0,0,0,0,0,0,0,0,0,0,0,0,0,0,0,0,0,0,0,0,0,0,0,0,0,0,0,0,0,0,0,0,0,0,0,0,0,0,0,0,0,0,0,0,0,-1.9176,-1.9176,0,-1.9207,-1.9208,-1.9208,-1.9216,-1.9216,-1.9216,-1.9216,-1.9247,-1.9248,-1.9249,0,0,0,0,0,0,0,0,0,0,0,0,0,-1.9123,-1.9124,-1.9176,-1.9176,-1.9177,-1.9207,-1.9208,-1.9208,-1.9216,-1.9216,-1.9216,-1.9216,-1.9247,-1.9248,-1.9249,0,0,0,0,0,0,0,0,0,0,0,0,0,-1.9149,-1.9124,-1.9176,-1.9185,-1.9186,-1.9207,-1.9208,-1.9208,-1.9216,-1.9216,-1.9216,-1.9216,-1.9247,-1.9248,-1.925,-1.9264,0,0,-1.9254,-1.9255,0,0,0,0,0,0,0,0,-1.9148,-1.9151,-1.9183,-1.9184,-1.9185,-1.9208,-1.92,-1.9227,-1.9217,-1.9205,-1.9216,-1.9216,-1.9234,-1.9237,-1.9243,-1.9266,-1.9267,-1.9254,-1.9255,-1.9256,-1.9256,0,0,0,0,0,0,0,-1.9146,-1.915,-1.9188,-1.9183,-1.9185,-1.9187,-1.919,-1.9205,-1.9221,-1.9206,-1.9207,-1.921,-1.9235,-1.9242,-1.9244,-1.9268,-1.9254,-1.9256,-1.9257,-1.9257,-1.9303,-1.9303,0,0,0,0,0,0,-1.9143,-1.9148,-1.9187,-1.9189,-1.9165,-1.9188,-1.9192,-1.9201,-1.9221,-1.9223,-1.921,-1.921,-1.9239,-1.9242,-1.9245,-1.9263,-1.9256,-1.9257,-1.9258,-1.9302,-1.9303,-1.9303,0,0,0,0,0,0,-1.9141,-1.9146,-1.9186,-1.9169,-1.9174,-1.9189,-1.9199,-1.9202,-1.9208,-1.9224,-1.9227,-1.9215,-1.9239,-1.9243,-1.9259,-1.9264,-1.9258,-1.9259,-1.9302,-1.9302,-1.9303,-1.9299,0,0,0,0,0,0,-1.914,-1.9145,-1.9152,-1.9169,-1.9175,-1.92,-1.92,-1.9202,-1.9211,-1.9211,-1.9229,-1.9231,-1.9239,-1.9257,-1.9261,-1.9266,-1.9261,-1.9302,-1.9302,-1.9303,-1.9299,-1.9299,-1.93,0,0,0,0,0,-1.9138,-1.9149,-1.9152,-1.9157,-1.9183,-1.92,-1.9204,-1.9213,-1.9211,-1.9217,-1.9227,-1.9231,-1.9263,-1.9259,-1.9263,-1.9269,-1.9301,-1.9302,-1.9303,-1.9299,-1.9299,-1.93,0,0,0,0,0,0,-1.9132,-1.9152,-1.9155,-1.9172,-1.9185,-1.9202,-1.921,-1.9213,-1.9226,-1.9226,-1.9237,-1.9241,-1.9256,-1.9264,-1.9259,-1.9284,-1.9282,-1.9284,-1.9278,-1.9278,-1.9279,-1.9276,-1.9262,0,0,0,0,0,-1.9133,-1.9146,-1.9162,-1.9176,-1.9182,-1.9195,-1.9203,-1.9208,-1.9221,-1.9227,-1.9238,-1.925,-1.9263,-1.9271,-1.9284,-1.93,-1.9303,-1.9306,-1.9307,-1.9307,-1.9308,-1.9316,-1.9317,-1.9305,-1.9305,-1.9305,0,0,-1.9135,-1.9147,-1.9155,-1.9175,-1.9185,-1.9198,-1.9199,-1.9212,-1.9221,-1.9229,-1.9244,-1.9253,-1.9267,-1.9283,-1.9291,-1.929,-1.9312,-1.9308,-1.9308,-1.9309,-1.9317,-1.9318,-1.9319,-1.9306,-1.9306,-1.9305,0,0,-1.9144,-1.9155,-1.9168,-1.9178,-1.9193,-1.9201,-1.9204,-1.922,-1.9226,-1.9242,-1.9247,-1.9258,-1.9281,-1.929,-1.9298,-1.931,-1.9314,-1.9314,-1.9316,-1.9324,-1.9325,-1.9326,-1.933,-1.9331,-1.9315,-1.9315,-1.9315,0,-1.9145,-1.9164,-1.9173,-1.9186,-1.9195,-1.9202,-1.9214,-1.9223,-1.9242,-1.9247,-1.9247,-1.9274,-1.9284,-1.9302,-1.9305,-1.9311,-1.9314,-1.9312,-1.9324,-1.9325,-1.9326,-1.933,-1.9331,-1.9315,-1.9315,-1.9315,-1.9315,0,-1.9163,-1.9176,-1.9184,-1.9201,-1.9211,-1.9223,-1.9234,-1.9243,-1.9248,-1.9256,-1.9271,-1.9284,-1.9299,-1.9303,-1.9309,-1.9322,-1.9321,-1.9322,-1.9321,-1.9327,-1.9331,-1.9332,-1.9315,-1.9315,-1.9315,-1.9315,0,0,-1.917,-1.9192,-1.9195,-1.9202,-1.9219,-1.9229,-1.9242,-1.9256,-1.9263,-1.9275,-1.9285,-1.9304,-1.9305,-1.9313,-1.932,-1.9327,-1.9334,-1.9327,-1.9328,-1.9327,-1.9349,-1.9348,-1.9349,-1.9337,-1.9337,-1.9338,-1.9348,0,-1.9181,-1.9203,-1.9212,-1.923,-1.9242,-1.9248,-1.9259,-1.927,-1.9278,-1.9289,-1.9297,-1.9309,-1.931,-1.9316,-1.9323,-1.9332,-1.9339,-1.9331,-1.9346,-1.9346,-1.9342,-1.9351,-1.935,-1.9359,-1.9349,-1.9349,-1.935,0,-1.9197,-1.9209,-1.9228,-1.9243,-1.9248,-1.9258,-1.9271,-1.9282,-1.9294,-1.9299,-1.9309,-1.9314,-1.9327,-1.9325,-1.9342,-1.9337,-1.9343,-1.9349,-1.9349,-1.9351,-1.9348,-1.9352,-1.9362,-1.9363,-1.9352,-1.9352,-1.9352,0,-1.9199,-1.922,-1.9234,-1.9241,-1.9258,-1.9265,-1.9272,-1.9285,-1.9293,-1.9304,-1.931,-1.9323,-1.933,-1.934,-1.9348,-1.9346,-1.9364,-1.9364,-1.9369,-1.9368,-1.9372,-1.9372,-1.9382,-1.9377,-1.9377,-1.9377,-1.9377,0,-1.921,-1.9222,-1.9236,-1.9244,-1.9257,-1.9266,-1.9278,-1.9286,-1.9297,-1.9307,-1.9314,-1.9323,-1.9334,-1.9344,-1.9351,-1.9364,-1.9367,-1.9371,-1.9373,-1.937,-1.937,-1.9375,-1.9374,-1.9377,-1.9377,-1.9377,-1.9377,0,-1.9215,-1.9225,-1.924,-1.9255,-1.9259,-1.9268,-1.9281,-1.9289,-1.9297,-1.9309,-1.9313,-1.9325,-1.9337,-1.9347,-1.9364,-1.9368,-1.9381,-1.9384,-1.9377,-1.9378,-1.9382,-1.9382,-1.9396,-1.9398,-1.9392,-1.9392,-1.9392,0,-1.9221,-1.923,-1.9246,-1.9253,-1.926,-1.9272,-1.9279,-1.9289,-1.9297,-1.9312,-1.9318,-1.9331,-1.9342,-1.9361,-1.9371,-1.9384,-1.9386,-1.939,-1.9388,-1.9385,-1.9385,-1.9385,-1.9385,-1.939,-1.939,-1.939,-1.939,0,-1.9231,-1.9235,-1.9246,-1.9259,-1.9268,-1.9279,-1.9289,-1.9295,-1.9306,-1.9315,-1.9327,-1.9336,-1.9352,-1.9365,-1.9378,-1.9386,-1.939,-1.9391,-1.9393,-1.939,-1.9386,-1.9388,-1.9377,-1.9391,-1.9391,-1.9391,-1.9391,-1.9391,-1.9236,-1.9243,-1.9256,-1.9268,-1.9277,-1.9286,-1.9295,-1.9303,-1.9314,-1.9328,-1.9333,-1.9346,-1.9358,-1.9376,-1.9384,-1.9394,-1.9394,-1.9397,-1.9397,-1.9398,-1.9397,-1.9385,-1.9396,-1.9396,-1.9396,-1.9396,-1.9396,0,-1.9245,-1.9253,-1.9264,-1.9279,-1.9288,-1.9291,-1.9303,-1.931,-1.9322,-1.9332,-1.9343,-1.9357,-1.9369,-1.938,-1.9392,-1.9398,-1.9401,-1.9401,-1.9401,-1.9402,-1.9396,-1.9393,-1.9399,-1.9399,-1.9399,-1.9399,-1.9399,-1.9399,-1.9251,-1.9264,-1.9269,-1.9287,-1.9295,-1.9307,-1.9314,-1.9323,-1.9331,-1.9347,-1.9357,-1.9364,-1.9374,-1.9387,-1.9398,-1.9401,-1.9405,-1.9406,-1.9409,-1.9403,-1.9403,-1.9402,-1.94,-1.9407,-1.9407,-1.9414,-1.9414,-1.9414]}]]